Weather reports worldwide

Advertisment
Thorney Island, United Kingdom (3872): temperature & dewpoint: 24.10.2020 20:00:00 - 30.10.2020 20:00:00 (GMT)Thorney Island, United Kingdom (3872): temperature -20cm & temperature -100cm: 24.10.2020 20:00:00 - 30.10.2020 20:00:00 (GMT)Thorney Island, United Kingdom (3872): wind speed & gusts: 24.10.2020 20:00:00 - 30.10.2020 20:00:00 (GMT)Thorney Island, United Kingdom (3872): wind direction: 24.10.2020 20:00:00 - 30.10.2020 20:00:00 (GMT)Thorney Island, United Kingdom (3872): reduced air pressure: 24.10.2020 20:00:00 - 30.10.2020 20:00:00 (GMT)Thorney Island, United Kingdom (3872): visibility: 24.10.2020 20:00:00 - 30.10.2020 20:00:00 (GMT)Thorney Island, United Kingdom (3872): precipitation: 24.10.2020 20:00:00 - 30.10.2020 20:00:00 (GMT)
Date & Time tt [°C] td [°C] tt -20cm [°C] tt -100cm [°C] ff [km/h] ff [kn] fx [km/h] fx [kn] dd ppp [hPa] vv [km] rr [mm]
30.10.2020 20:00:00 - - - - - - - - - - - -
30.10.2020 19:00:00 14,0 13,1 - - 26 14 - - SW 1020,1 23 0,0
30.10.2020 18:00:00 14,0 13,3 - - 28 15 - - SW 1019,5 5 0,0
30.10.2020 17:00:00 14,1 13,4 - - 26 14 - - SW 1019,0 3,5 0,4
30.10.2020 16:00:00 14,2 13,5 - - 28 15 - - SW 1018,8 4,0 0,0
30.10.2020 15:00:00 14,7 13,5 - - 26 14 - - WSW 1018,5 9 0,0
30.10.2020 14:00:00 14,6 13,4 - - 31 17 46 25 WSW 1018,4 11 0,0
30.10.2020 13:00:00 14,6 13,4 - - 34 18 46 25 WSW 1018,2 7 0,0
30.10.2020 12:00:00 14,4 13,3 - - 28 15 50 27 WSW 1018,0 6 0,0
30.10.2020 11:00:00 14,4 13,2 - - 35 19 50 27 WSW 1017,7 9 0,2
30.10.2020 10:00:00 14,2 12,9 - - 39 21 54 29 SW 1017,4 5 0,0
30.10.2020 09:00:00 14,0 12,6 12,7 12,9 29 16 54 29 SW 1017,2 8 0,0
30.10.2020 08:00:00 14,7 12,0 - - 39 21 57 31 WSW 1016,5 14 0,0
30.10.2020 07:00:00 14,9 11,5 - - 35 19 50 27 SW 1016,0 17 0,0
30.10.2020 06:00:00 14,7 11,8 - - 31 17 50 27 WSW 1015,5 13 0,0
30.10.2020 05:00:00 14,7 12,1 - - 37 20 55 30 SW 1015,5 11 0,0
30.10.2020 04:00:00 14,4 12,1 - - 37 20 55 30 SW 1015,4 14 0,0
30.10.2020 03:00:00 14,5 12,2 - - 39 21 52 28 WSW 1015,2 15 0,0
30.10.2020 02:00:00 14,6 12,2 - - 37 20 55 30 SW 1015,1 14 0,0
30.10.2020 01:00:00 14,3 12,3 - - 35 19 55 30 WSW 1015,0 5 0,0
30.10.2020 00:00:00 14,5 12,1 - - 34 18 55 30 WSW 1015,0 13 0,0
29.10.2020 23:00:00 14,0 12,5 - - 34 18 52 28 WSW 1015,0 12 0,0
29.10.2020 22:00:00 14,4 12,1 - - 37 20 59 32 WSW 1014,6 12 0,0
29.10.2020 21:00:00 14,0 12,4 - - 35 19 54 29 WSW 1014,4 11 0,2
29.10.2020 20:00:00 14,1 12,0 - - 35 19 54 29 WSW 1014,4 9 0,0
29.10.2020 19:00:00 14,4 11,9 - - 35 19 52 28 WSW 1014,4 12 0,0
29.10.2020 18:00:00 14,4 12,0 - - 39 21 54 29 WSW 1014,0 12 0,0
29.10.2020 17:00:00 14,3 11,7 - - 37 20 54 29 WSW 1013,7 17 0,0
29.10.2020 16:00:00 14,3 11,9 - - 37 20 54 29 WSW 1013,5 13 0,0
29.10.2020 15:00:00 14,1 11,9 - - 37 20 55 30 WSW 1013,3 14 0,2
29.10.2020 14:00:00 13,9 12,2 - - 35 19 50 27 WSW 1013,2 8 0,0
29.10.2020 13:00:00 13,7 12,3 - - 29 16 54 29 WSW 1013,9 7 0,0
29.10.2020 12:00:00 13,9 12,1 - - 34 18 48 26 SW 1013,9 6 0,4
29.10.2020 11:00:00 13,5 11,8 - - 31 17 - - SW 1014,2 6 0,0
29.10.2020 10:00:00 12,8 11,3 - - 26 14 - - SW 1014,4 11 0,6
29.10.2020 09:00:00 12,4 10,6 12,2 12,9 26 14 - - SW 1014,5 11 0,4
29.10.2020 08:00:00 11,9 10,4 - - 18 10 - - SW 1014,4 4,1 0,2
29.10.2020 07:00:00 11,7 9,0 - - 16 9 - - SW 1014,1 12 0,0
29.10.2020 06:00:00 10,9 8,2 - - 15 8 - - SW 1013,6 15 0,0
29.10.2020 05:00:00 10,5 7,4 - - 15 8 - - W 1013,2 19 0,0
29.10.2020 04:00:00 10,9 7,2 - - 22 12 - - W 1012,3 23 0,0
29.10.2020 03:00:00 11,3 7,3 - - 24 13 - - W 1011,7 22 0,0
29.10.2020 02:00:00 11,0 6,6 - - 28 15 - - W 1011,2 21 0,0
29.10.2020 01:00:00 10,9 6,5 - - 29 16 46 25 W 1010,7 28 0,0
29.10.2020 00:00:00 10,2 6,8 - - 24 13 - - W 1009,9 24 0,0
28.10.2020 23:00:00 10,5 6,4 - - 31 17 - - W 1009,1 30 0,0
28.10.2020 22:00:00 10,7 6,0 - - 29 16 46 25 W 1008,1 22 0,0
28.10.2020 21:00:00 10,7 6,8 - - 28 15 48 26 W 1007,4 25 0,0
28.10.2020 20:00:00 11,0 6,9 - - 26 14 48 26 W 1006,6 28 0,0
28.10.2020 19:00:00 10,8 7,1 - - 29 16 - - W 1005,8 27 0,0
28.10.2020 18:00:00 10,4 6,9 - - 28 15 - - WSW 1004,8 45 0,0
28.10.2020 17:00:00 10,8 7,5 - - 31 17 - - WSW 1003,8 19 0,0
28.10.2020 16:00:00 10,4 8,0 - - 31 17 65 35 WSW 1003,3 19 1,4
28.10.2020 15:00:00 12,2 7,9 - - 37 20 55 30 WSW 1002,8 23 1,2
28.10.2020 14:00:00 12,8 8,7 - - 34 18 - - SW 1002,9 19 0,0
28.10.2020 13:00:00 11,9 8,3 - - 29 16 63 34 WSW 1003,5 22 1,4
28.10.2020 12:00:00 13,2 7,7 - - 34 18 57 31 WSW 1003,2 17 0,0
28.10.2020 11:00:00 13,0 8,3 - - 37 20 50 27 WSW 1003,5 15 0,0
28.10.2020 10:00:00 12,5 8,5 - - 29 16 48 26 WSW 1003,6 19 0,0
28.10.2020 09:00:00 12,5 7,2 12,4 13,0 35 19 50 27 WSW 1003,2 20 0,0
28.10.2020 08:00:00 11,9 7,9 - - 29 16 - - SW 1002,8 16 0,0
28.10.2020 07:00:00 11,4 6,8 - - 31 17 55 30 WSW 1002,3 28 0,0
28.10.2020 06:00:00 10,6 7,3 - - 18 10 - - WSW 1002,1 10 0,0
28.10.2020 05:00:00 10,7 6,2 - - 28 15 48 26 WSW 1002,2 25 0,2
28.10.2020 04:00:00 10,9 6,6 - - 34 18 50 27 WSW 1001,7 8 0,0
28.10.2020 03:00:00 11,1 7,5 - - 31 17 46 25 SW 1001,6 23 0,0
28.10.2020 02:00:00 10,8 6,2 - - 34 18 54 29 SW 1001,3 30 0,0
28.10.2020 01:00:00 10,1 6,5 - - 18 10 68 37 SW 1001,6 27 0,4
28.10.2020 00:00:00 10,8 8,2 - - 15 8 - - WSW 1001,4 16 0,4
27.10.2020 23:00:00 11,3 8,0 - - 18 10 - - SW 1001,2 12 0,0
27.10.2020 22:00:00 11,5 7,8 - - 18 10 - - WSW 1000,7 13 0,0
27.10.2020 21:00:00 11,0 7,8 - - 16 9 - - WSW 1000,2 13 0,0
27.10.2020 20:00:00 11,5 7,2 - - 22 12 - - WSW 999,6 17 0,0
27.10.2020 19:00:00 11,0 7,7 - - 18 10 - - W 999,0 30 0,0
27.10.2020 18:00:00 11,5 9,0 - - 22 12 - - W 997,8 35 0,0
27.10.2020 17:00:00 11,5 9,4 - - 24 13 68 37 W 996,5 50 0,0
27.10.2020 16:00:00 13,8 11,6 - - 35 19 46 25 WSW 995,2 20 0,0
27.10.2020 15:00:00 14,1 12,5 - - 28 15 50 27 WSW 994,4 30 3,6
27.10.2020 14:00:00 13,7 13,1 - - 42 23 57 31 SSW 994,6 5 0,4
27.10.2020 13:00:00 12,8 12,2 - - 46 25 61 33 SSW 995,2 2,2 0,4
27.10.2020 12:00:00 12,2 11,1 - - 46 25 65 35 S 996,2 3,4 0,2
27.10.2020 11:00:00 11,9 10,8 - - 46 25 61 33 S 997,8 4,3 0,2
27.10.2020 10:00:00 11,5 10,2 - - 46 25 61 33 S 998,6 8 0,4
27.10.2020 09:00:00 11,5 10,3 12,5 13,0 37 20 48 26 SSW 999,4 9 0,2
27.10.2020 08:00:00 10,8 8,9 - - 22 12 - - SW 1000,4 30 0,6
27.10.2020 07:00:00 10,6 8,3 - - 26 14 - - WSW 1000,7 15 0,4
27.10.2020 06:00:00 11,1 7,9 - - 13 7 - - SSW 1001,1 21 0,0
27.10.2020 05:00:00 10,0 7,7 - - 8 4 - - SW 1001,4 30 0,0
27.10.2020 04:00:00 9,1 7,4 - - 8 4 - - W 1001,7 30 0,0
27.10.2020 03:00:00 9,4 7,6 - - 11 6 - - W 1002,0 26 0,0
27.10.2020 02:00:00 9,5 7,1 - - 13 7 - - W 1002,4 35 0,0
27.10.2020 01:00:00 9,3 7,0 - - 18 10 - - W 1002,4 30 0,0
27.10.2020 00:00:00 9,3 7,0 - - 18 10 - - W 1002,7 30 0,0
26.10.2020 23:00:00 9,1 6,8 - - 15 8 - - W 1002,8 27 0,0
26.10.2020 22:00:00 9,8 6,8 - - 22 12 - - W 1002,6 23 0,0
26.10.2020 21:00:00 10,2 6,9 - - 18 10 - - W 1002,4 22 0,0
26.10.2020 20:00:00 9,9 6,8 - - 15 8 - - W 1001,7 23 0,0
26.10.2020 19:00:00 10,5 6,3 - - 18 10 - - W 1001,5 26 0,0
26.10.2020 18:00:00 10,8 6,8 - - 18 10 - - W 1001,1 26 0,0
26.10.2020 17:00:00 11,7 6,0 - - 24 13 - - W 1000,3 27 0,0
26.10.2020 16:00:00 12,6 6,6 - - 24 13 - - W 999,6 28 0,0
26.10.2020 15:00:00 13,4 6,6 - - 24 13 - - W 999,1 40 0,0
26.10.2020 14:00:00 14,2 7,7 - - 26 14 - - W 998,8 27 0,0
26.10.2020 13:00:00 12,8 7,4 - - 24 13 - - W 998,5 50 0,0
26.10.2020 12:00:00 13,3 8,9 - - 24 13 - - W 998,3 30 0,0
26.10.2020 11:00:00 12,9 8,6 - - 31 17 48 26 W 998,2 18 0,0
26.10.2020 10:00:00 12,6 7,9 - - 31 17 - - WSW 998,1 16 0,0
26.10.2020 09:00:00 11,6 8,2 12,9 13,2 21 11 - - WSW 997,9 16 0,0
26.10.2020 08:00:00 10,3 7,4 - - 22 12 - - WSW 997,7 28 0,0
26.10.2020 07:00:00 9,5 6,9 - - 13 7 - - WSW 997,1 26 0,0
26.10.2020 06:00:00 9,3 6,6 - - 13 7 - - W 996,7 30 0,0
26.10.2020 05:00:00 8,9 6,7 - - 15 8 - - WSW 996,7 27 0,0
26.10.2020 04:00:00 7,8 7,2 - - 13 7 - - SW 996,7 25 0,0
26.10.2020 03:00:00 6,3 4,8 - - 4 2 - - W 996,5 35 0,0
26.10.2020 02:00:00 8,0 6,2 - - 9 5 - - W 996,9 40 0,0
26.10.2020 01:00:00 9,3 7,1 - - 13 7 - - W 997,0 50 0,0
26.10.2020 00:00:00 9,6 7,1 - - 13 7 - - WSW 997,0 50 0,2
25.10.2020 23:00:00 9,7 7,2 - - 18 10 - - WSW 997,2 17 1,0
25.10.2020 22:00:00 10,6 7,5 - - 15 8 - - WSW 997,1 24 0,0
25.10.2020 21:00:00 10,8 7,4 - - 18 10 - - WSW 996,8 35 0,2
25.10.2020 20:00:00 10,7 7,1 - - 16 9 - - SW 996,6 40 0,0
25.10.2020 19:00:00 11,4 7,4 - - 21 11 - - SW 996,7 40 0,0
25.10.2020 18:00:00 11,0 7,3 - - 21 11 - - SW 996,6 30 0,0
25.10.2020 17:00:00 11,2 6,9 - - 22 12 - - SW 996,5 45 0,0
25.10.2020 16:00:00 12,0 7,9 - - 29 16 - - SW 996,5 25 0,0
25.10.2020 15:00:00 12,8 7,8 - - 26 14 - - SW 996,3 35 0,0
25.10.2020 14:00:00 11,7 7,1 - - 24 13 - - SW 996,5 50 0,0
25.10.2020 13:00:00 10,8 7,2 - - 15 8 55 30 WSW 996,6 50 0,6
25.10.2020 12:00:00 11,5 8,3 - - 9 5 - - SSW 996,9 26 0,0
25.10.2020 11:00:00 10,6 8,4 - - 11 6 - - SSW 997,4 30 0,4
25.10.2020 10:00:00 9,5 6,7 - - 21 11 54 29 W 997,7 11 0,2
25.10.2020 09:00:00 12,6 8,1 13,4 13,2 28 15 - - SW 997,1 25 0,2
25.10.2020 08:00:00 10,5 7,3 - - 18 10 48 26 SW 997,4 35 0,2
25.10.2020 07:00:00 11,8 6,8 - - 37 20 55 30 SW 997,0 20 0,0
25.10.2020 06:00:00 12,2 6,9 - - 24 13 - - SW 996,9 30 0,0
25.10.2020 05:00:00 11,7 7,0 - - 16 9 - - SW 996,9 23 0,0
25.10.2020 04:00:00 11,6 7,1 - - 26 14 - - SW 996,8 26 0,0
25.10.2020 03:00:00 10,8 7,6 - - 18 10 - - SW 996,7 27 0,0
25.10.2020 02:00:00 11,0 7,9 - - 18 10 - - WSW 997,3 30 0,0
25.10.2020 01:00:00 11,3 9,2 - - 18 10 - - WSW 997,2 21 0,0
25.10.2020 00:00:00 - - - - - - - - - - - -
24.10.2020 23:00:00 12,6 9,5 - - 41 22 57 31 SW 996,4 30 0,0
24.10.2020 22:00:00 12,7 10,4 - - 34 18 46 25 SW 996,4 13 0,2
24.10.2020 21:00:00 11,5 9,9 - - 34 18 81 44 W 996,5 24 1,8
24.10.2020 20:00:00 13,6 12,4 - - 41 22 59 32 SSW 995,9 6 0,8

tt = temperature
td = dewpoint
tt -20cm = temperature -20cm
tt -100cm = temperature -100cm
ff = wind speed
fx = gusts
dd = wind direction
ppp = reduced air pressure
vv = visibility
rr = precipitation

Next stations